Temp
26 26 26 26 26 26 27 27 27 27 27 27 28 27 27 27 27 27 27 27 26 26 25 25 25 25 25 25 25 25 25 26 25 26 26 26 27 27 27 28 28 28
26 26 26 26 26 26 27 27 27 27 27 27 28 28 28 27 27 27 27 26 26 26 25 25 25 25 25 26 25 25 25 26 26 26 26 26 27 27 28 28 28 28
26 26 26 27 27 27 27 27 27 27 27 27 27 28 28 28 27 27 27 27 27 27 26 26 26 25 25 26 25 25 26 26 26 26 26 26 26 27 27 28 28 28
26 27 27 27 27 27 27 27 27 27 27 27 27 27 27 28 28 27 27 27 26 27 26 26 26 26 26 26 25 25 26 26 26 26 26 26 26 27 27 27 28 28
27 27 27 27 28 28 27 27 27 27 27 27 27 28 27 27 27 27 27 27 26 26 27 26 26 26 26 26 25 26 26 26 26 26 26 26 26 27 27 28 28 28
27 27 27 27 28 28 28 28 28 28 28 28 28 28 28 27 27 27 27 27 27 27 27 27 27 27 27 26 26 26 26 27 27 26 26 26 26 27 28 28 28 27
28 28 27 28 28 28 28 28 28 28 28 28 28 28 28 28 27 27 27 27 27 27 28 28 27 27 27 27 26 26 26 27 27 26 26 26 26 26 27 27 27 27
29 28 28 28 28 28 28 28 28 28 28 28 28 28 28 28 28 28 27 27 28 28 28 28 28 27 27 27 27 26 26 27 27 27 26 26 26 26 26 27 27 27
29 29 29 28 28 29 29 29 29 28 28 28 28 28 28 28 28 28 28 27 27 27 27 27 27 27 27 27 27 27 26 27 27 27 27 26 26 26 27 27 27 27
28 29 29 29 29 29 29 29 29 29 28 28 28 28 29 28 28 28 28 27 27 27 27 27 27 27 27 27 27 27 27 27 27 27 27 27 27 27 27 27 27 27
28 29 28 28 29 29 30 29 29 29 29 29 28 28 29 29 28 28 28 27 27 27 27 27 27 27 27 27 27 27 27 27 27 27 27 27 27 27 27 27 27 27
28 28 27 27 27 28 29 29 30 29 29 29 29 29 28 29 29 28 28 27 27 27 27 27 27 27 27 27 27 28 27 27 27 27 27 27 27 27 27 27 27 27
27 27 27 27 26 26 26 27 28 29 30 29 29 29 28 28 29 29 28 28 27 27 27 27 27 27 27 26 27 27 27 27 27 27 27 27 27 27 27 27 27 27
26 26 26 27 27 26 26 26 27 27 27 28 28 29 29 28 29 29 28 28 28 27 27 27 27 27 27 26 26 27 27 27 27 28 28 27 28 27 27 27 27 27
26 25 26 26 26 26 26 26 26 26 26 25 25 27 29 29 28 29 29 28 28 27 27 27 27 27 27 26 26 26 26 26 27 27 27 27 27 27 27 27 26 26
25 24 25 26 26 26 25 26 26 26 27 27 25 25 27 27 28 28 28 29 29 28 27 27 28 27 26 25 25 25 25 26 26 26 26 26 25 25 26 26 26 26
24 24 25 25 25 25 25 25 26 26 26 26 26 25 25 25 26 27 28 28 29 28 28 28 26 25 25 25 25 25 25 25 26 25 26 25 25 25 26 26 26 26
24 23 24 24 25 25 25 25 25 25 25 25 25 26 26 25 24 25 26 27 28 28 28 26 24 23 24 24 25 25 25 25 25 25 25 25 25 26 26 26 26 26
23 23 23 23 23 23 24 24 24 24 24 24 24 25 25 25 25 24 23 24 25 25 23 22 22 24 23 23 24 25 25 25 25 25 25 24 25 26 26 26 26 26
23 23 23 23 23 23 23 23 23 23 23 23 24 24 24 24 24 24 23 23 23 22 20 21 22 24 23 24 24 24 24 25 25 25 25 24 25 26 26 26 26 25
22 22 22 23 23 23 23 22 21 22 22 22 22 22 23 24 24 23 23 23 23 22 22 21 22 23 23 23 23 23 23 24 24 25 25 25 25 25 25 25 25 24
22 21 21 22 22 22 22 22 21 22 22 22 22 22 23 23 23 22 22 23 23 22 22 21 21 22 23 23 23 23 23 23 23 23 24 24 25 25 25 24 24 24
22 21 21 22 22 21 22 21 21 22 22 21 21 22 22 22 22 21 22 22 22 22 21 20 20 21 22 22 23 23 23 22 22 22 22 23 24 24 24 23 23 23
21 21 21 21 21 21 21 21 21 21 21 21 20 21 21 21 21 21 21 21 21 21 21 20 20 20 21 21 22 22 23 22 22 21 21 21 22 23 24 23 22 22
20 20 20 20 20 20 21 21 20 20 20 20 20 20 20 21 21 20 20 20 20 20 20 19 19 20 20 20 21 22 22 22 22 21 21 22 22 22 22 22 21 20
19 19 19 19 19 19 20 20 20 19 19 20 20 20 20 20 20 19 19 19 19 18 18 18 18 19 19 19 20 20 20 20 21 21 20 21 22 21 21 21 21 20
Height
825 826 828 829 829 830 830 831 832 832 833 833 834 834 835 836 836 837 837 838 839 839 840 840 841 841 842 842 842 841 841 841 841 840 839 840 839 839 838 838 838 838
823 825 826 828 829 829 830 830 831 831 832 833 833 833 834 835 836 836 837 837 838 838 839 839 839 840 840 841 841 841 841 840 840 840 839 839 838 838 837 836 837 837
822 823 825 826 827 828 829 829 830 831 831 832 832 833 833 834 834 835 836 836 837 837 837 838 838 839 839 839 840 839 840 839 839 839 839 838 838 837 837 836 835 835
821 822 823 824 825 826 827 828 829 830 830 831 831 832 832 833 833 834 835 835 836 836 836 836 837 837 838 838 838 838 838 838 838 838 838 838 837 837 836 835 835 834
819 820 821 822 823 824 825 826 827 828 829 829 830 830 831 832 832 832 833 834 834 835 835 835 835 836 836 837 837 837 837 837 837 837 837 837 837 836 835 835 835 834
816 817 819 820 821 822 823 824 825 826 827 827 828 829 829 830 831 831 832 832 832 833 833 833 834 834 835 835 835 835 835 835 835 835 836 836 836 835 835 834 834 834
813 815 817 818 819 821 821 822 823 823 825 825 826 827 827 828 829 830 830 831 831 831 831 832 832 833 833 833 834 834 834 834 834 834 834 834 835 835 834 834 834 834
811 812 815 816 817 818 819 820 821 821 823 824 824 825 825 826 827 828 829 830 830 830 830 831 831 831 832 832 832 832 832 832 832 832 833 833 833 834 834 834 834 834
809 810 812 813 814 816 816 818 819 820 821 822 822 823 824 825 826 826 828 828 829 829 829 830 830 830 831 830 831 831 831 831 831 831 831 832 832 832 833 833 833 833
808 808 809 810 812 813 814 815 816 817 819 820 820 821 821 823 824 825 826 827 828 828 829 829 829 829 829 829 829 830 830 830 830 830 830 830 831 831 831 832 832 832
806 807 808 810 810 811 812 813 814 815 816 817 818 819 819 820 821 823 824 825 826 827 827 828 828 828 828 828 828 828 828 829 829 829 830 830 830 830 830 831 831 831
804 806 808 809 810 811 812 812 812 813 814 815 816 817 818 818 818 820 822 823 824 825 826 826 826 827 826 826 826 826 826 827 827 828 829 829 829 829 830 830 830 830
803 805 805 806 808 811 812 811 811 811 812 813 813 814 815 816 816 817 819 820 822 823 824 824 824 825 825 825 825 825 825 825 826 826 827 827 828 828 829 829 829 829
802 803 803 804 806 807 808 809 809 810 810 810 811 812 813 814 814 815 816 818 819 820 821 822 822 822 822 823 823 823 824 823 824 825 825 826 826 826 827 827 828 828
800 801 801 803 804 805 805 806 807 808 809 810 811 811 811 812 813 814 814 815 816 818 819 819 820 820 820 821 822 823 823 823 823 824 824 825 825 825 826 826 827 828
799 799 800 801 802 803 804 805 806 807 808 809 811 812 812 813 814 813 813 813 814 814 816 817 817 817 817 818 821 823 823 823 823 822 823 825 826 825 825 825 826 827
797 797 798 799 800 801 801 802 804 804 805 807 808 810 812 813 815 814 813 813 813 812 813 814 814 814 815 817 818 819 821 822 822 822 822 824 825 825 824 824 825 825
795 795 796 797 798 799 800 801 802 803 804 805 806 807 809 810 814 816 815 814 813 813 813 813 813 814 817 819 818 818 819 821 821 821 821 822 823 823 823 823 824 824
793 794 795 796 797 798 799 800 801 801 802 803 804 805 806 808 811 814 816 816 814 815 816 814 814 816 817 818 818 818 819 820 819 819 819 819 820 820 821 822 823 824
792 792 793 794 795 796 797 798 799 800 800 801 802 803 804 806 807 810 813 815 814 816 817 816 815 816 816 816 815 817 818 818 819 819 818 817 817 818 819 821 821 822
790 791 792 792 793 794 795 796 797 797 799 799 800 802 803 804 806 807 809 811 812 814 815 814 814 816 817 816 815 816 817 817 818 817 816 816 816 816 818 819 820 821
789 790 791 792 792 793 793 794 794 795 797 799 800 801 802 803 804 806 806 808 810 812 813 814 814 815 816 816 815 815 816 817 817 817 816 816 815 816 817 818 818 819
788 789 790 790 791 791 791 792 793 793 794 797 799 801 802 802 803 804 805 806 809 811 813 814 814 813 813 814 814 814 815 816 817 817 818 818 816 816 816 817 817 817
786 787 789 789 789 789 790 791 792 793 793 795 798 800 801 802 803 803 804 806 808 811 812 813 813 812 813 813 812 813 814 815 817 817 818 819 819 818 817 818 818 818
785 786 787 788 789 789 789 789 789 791 792 794 796 799 801 802 803 804 805 806 807 810 811 812 812 812 812 812 811 811 812 813 815 816 817 817 818 820 820 820 820 818
786 787 788 789 789 789 789 789 789 788 790 793 796 798 800 802 803 804 805 805 807 808 809 810 810 810 811 811 811 811 812 813 815 816 816 815 815 817 819 820 820 819
Wind_Speed
15 14 14 13 13 12 12 12 12 12 12 11 11 11 11 10 10 9 9 9 9 9 8 7 7 7 6 6 6 7 7 7 7 7 6 6 8 8 9 9 8 8
16 15 15 14 14 13 13 12 12 11 11 11 10 10 10 10 10 10 10 9 9 9 9 8 8 8 8 7 7 7 8 8 8 8 8 7 8 9 9 10 9 9
17 16 16 15 14 14 13 13 12 11 11 11 11 10 10 11 11 11 11 11 11 10 10 10 9 9 9 8 8 8 8 9 8 8 9 7 7 9 9 10 9 9
18 17 17 16 15 14 14 13 13 12 12 12 12 11 11 11 11 12 12 12 12 11 11 11 10 10 10 10 9 10 10 9 9 8 8 7 8 9 10 10 10 10
19 18 17 17 16 14 14 14 14 14 13 12 12 12 12 12 11 12 12 13 13 13 12 12 11 11 11 10 10 10 10 10 10 9 9 9 9 10 10 9 9 10
19 19 18 17 17 16 15 15 14 14 14 14 13 13 13 13 13 13 13 13 14 14 14 14 13 13 12 12 12 11 11 11 10 9 9 9 9 10 10 9 9 9
19 19 19 18 18 17 16 15 15 14 14 14 14 14 14 14 14 14 14 14 14 14 15 15 14 14 13 13 13 12 12 12 10 9 9 9 10 10 10 10 9 9
19 19 19 19 19 18 18 17 16 15 15 14 14 14 14 14 14 14 15 15 15 15 14 14 14 14 14 13 13 13 12 13 12 12 12 12 11 11 11 11 10 10
17 18 19 19 20 19 19 19 17 16 16 16 15 15 15 15 15 14 14 14 14 14 14 14 14 14 14 14 14 14 13 13 13 12 12 12 12 11 11 11 11 12
17 17 18 19 20 20 19 19 18 18 17 17 17 16 15 15 15 15 14 14 14 14 14 14 14 14 15 15 15 15 15 15 14 13 12 12 11 11 11 11 11 12
17 16 16 17 18 19 20 19 18 18 18 18 17 17 17 16 15 15 15 14 14 15 15 15 15 15 16 16 16 16 15 15 15 13 13 13 12 12 11 11 11 12
17 15 14 16 15 15 17 18 19 18 18 17 17 17 18 17 16 15 15 15 15 15 15 15 15 16 16 16 17 16 15 15 14 13 13 12 13 12 12 12 12 12
17 15 16 20 18 16 16 17 17 17 18 18 18 18 17 18 18 16 15 15 15 16 16 16 15 16 16 16 16 16 15 15 14 13 13 13 13 13 12 12 12 11
17 16 18 22 22 20 20 18 17 16 14 15 16 18 18 18 18 17 16 16 16 16 17 17 16 17 17 16 16 16 15 14 14 13 13 13 13 12 12 12 11 11
14 16 20 22 22 22 22 22 21 18 15 15 18 17 17 17 17 18 17 17 17 16 16 17 18 18 16 15 15 15 14 14 14 14 13 13 12 11 11 10 10 11
12 16 21 23 23 23 22 21 21 20 19 18 20 19 15 14 16 18 17 17 17 17 17 18 17 15 14 14 15 14 13 13 13 12 10 12 14 13 11 11 11 11
12 15 20 22 23 24 23 21 20 19 20 21 18 15 14 13 13 15 16 17 16 16 18 16 13 12 13 16 18 17 15 13 12 11 11 12 14 14 12 12 12 11
12 13 17 21 22 23 22 21 22 21 20 20 18 17 16 13 13 17 17 16 17 18 14 6 3 6 10 13 16 17 16 14 13 14 15 15 14 13 12 12 10 10
12 12 13 16 17 19 20 20 21 21 21 20 20 19 18 16 15 17 18 16 15 13 7 6 4 5 8 12 14 14 17 17 15 16 18 17 15 12 11 11 9 9
15 15 15 16 16 17 18 19 18 19 20 20 19 18 18 16 15 14 15 17 16 13 10 8 5 7 9 12 14 14 18 20 18 17 17 16 13 10 10 10 9 9
15 16 16 17 18 18 18 16 15 16 17 18 18 17 18 17 15 13 13 14 14 13 10 5 4 7 10 11 14 16 18 19 18 17 16 14 12 11 11 11 9 8
13 15 16 17 17 18 18 17 16 17 18 18 18 17 17 16 13 11 10 11 11 10 10 8 8 10 10 10 12 14 15 16 16 16 16 14 13 13 13 11 10 10
12 13 16 17 17 18 18 17 16 18 19 18 17 15 13 12 11 10 9 9 8 5 4 6 6 7 8 8 10 11 12 13 13 15 16 15 13 16 16 12 11 13
11 12 14 17 19 19 19 18 17 16 15 16 16 13 10 10 9 9 7 7 6 5 5 6 4 3 4 6 7 7 9 10 9 11 15 17 17 17 16 13 11 10
7 9 11 13 15 15 17 18 18 16 13 13 14 12 10 9 8 7 7 8 8 7 7 6 4 3 3 4 5 6 8 7 6 9 12 15 16 11 9 10 9 6
5 3 2 4 6 8 9 8 9 13 12 11 12 11 9 9 8 7 8 8 7 7 7 6 3 3 3 4 4 4 4 2 4 9 11 12 11 8 6 8 7 5
Wind_Direction
197 199 202 205 207 208 208 206 207 208 209 211 211 210 210 210 212 212 211 208 206 213 216 213 221 229 231 232 237 247 258 263 261 261 267 272 273 276 277 279 281 278
199 200 202 206 209 211 212 212 213 212 211 214 217 214 209 210 211 212 211 209 210 213 214 217 220 224 229 229 230 237 247 255 259 262 267 269 274 279 280 281 282 280
202 201 203 207 209 210 212 213 215 217 216 215 219 218 213 212 210 211 214 213 218 221 215 219 222 221 226 229 230 236 243 249 253 259 266 268 274 279 281 284 284 284
204 205 206 209 211 211 212 214 214 217 220 218 218 219 218 219 213 210 214 215 219 224 219 219 222 221 225 225 227 236 242 246 247 252 263 267 270 275 278 283 287 291
205 207 209 212 214 213 212 214 215 216 220 219 218 218 217 218 219 213 213 214 216 222 222 221 222 223 224 222 224 232 239 243 243 241 249 259 264 268 272 275 279 286
205 207 210 214 214 215 215 217 219 218 220 220 217 218 216 213 217 219 217 215 217 220 223 223 223 224 224 224 225 230 236 243 244 234 234 247 258 264 270 274 276 278
206 206 209 214 214 217 219 220 221 221 222 224 219 219 218 214 215 220 222 222 222 224 226 225 224 226 226 225 226 228 232 239 242 238 236 245 256 264 267 269 273 274
208 206 208 213 215 216 219 221 223 221 221 224 224 222 221 221 220 221 224 226 228 228 230 229 226 224 227 228 226 227 231 235 237 235 238 246 253 258 262 263 265 266
213 212 209 211 216 217 219 220 221 221 221 222 225 225 223 224 226 227 226 226 231 234 233 233 230 225 227 231 231 230 233 237 240 237 236 242 247 251 255 258 260 263
217 219 216 214 215 218 220 221 221 221 220 222 226 228 226 224 225 230 232 227 229 234 235 233 233 231 232 235 235 234 234 238 242 243 241 242 246 250 253 257 259 260
219 221 226 227 224 223 222 222 224 225 222 222 224 227 229 228 223 225 231 232 231 232 235 235 233 234 236 238 239 237 235 238 240 242 244 244 246 249 252 256 259 261
219 219 224 232 240 247 241 231 227 227 227 226 225 226 228 229 227 225 225 228 232 233 235 236 235 236 237 237 239 239 236 238 240 240 241 242 244 246 248 251 254 257
216 220 224 226 231 245 256 256 246 235 232 230 227 225 227 229 227 225 223 224 229 232 234 237 238 237 237 236 238 239 237 236 238 240 240 242 244 245 247 251 254 256
210 216 225 228 226 226 234 246 252 256 258 256 244 228 223 229 228 223 222 225 229 231 232 235 235 235 235 234 235 237 237 237 239 242 244 245 246 244 246 251 254 261
208 210 220 225 225 225 228 230 236 247 259 276 281 259 230 226 230 227 224 224 224 226 231 234 235 236 237 233 233 238 240 242 244 244 245 250 255 252 247 250 254 261
213 216 222 222 222 227 232 232 233 237 237 250 279 284 263 242 235 230 229 232 228 220 226 234 234 234 236 229 228 236 242 246 251 250 245 248 256 257 251 253 257 257
216 221 225 224 223 226 230 233 235 236 235 237 249 262 264 264 259 245 235 236 239 233 232 236 234 235 238 229 223 226 231 238 249 251 245 245 250 254 254 255 258 258
214 219 223 223 224 228 230 233 234 234 234 235 235 233 233 240 259 267 260 245 242 245 243 235 225 249 253 243 232 227 227 231 237 239 242 245 246 247 249 251 253 256
212 211 218 221 223 228 232 234 235 233 230 230 230 226 220 221 235 261 276 275 270 281 320 16 358 275 254 245 240 236 234 234 237 240 243 244 241 238 243 242 242 250
216 213 215 218 220 224 231 234 234 232 229 226 224 216 212 219 222 230 254 269 279 300 337 5 321 277 260 244 236 238 241 240 244 248 249 250 248 241 242 241 238 241
224 223 223 225 225 224 226 228 227 227 226 225 222 215 212 218 218 214 227 242 257 273 283 287 266 264 266 252 236 234 239 243 249 253 254 257 256 246 242 242 235 233
238 235 236 234 227 222 222 220 216 221 228 228 221 217 216 218 213 205 214 229 243 260 259 241 236 245 254 254 243 238 242 250 258 261 258 255 249 244 244 239 232 239
248 242 241 235 226 221 220 218 215 219 224 224 218 214 213 211 203 194 196 212 228 235 207 189 210 233 239 244 246 250 259 267 275 278 273 267 262 254 247 240 243 253
255 249 245 239 232 225 219 218 222 221 216 211 209 210 205 196 193 188 172 157 158 159 144 139 162 213 228 236 243 258 271 273 287 298 289 282 277 261 248 249 258 260
268 263 259 250 244 238 231 225 215 202 195 196 197 199 196 188 179 167 147 136 139 139 126 126 159 212 250 261 247 253 266 261 271 295 292 286 286 277 257 259 261 252
42 14 322 275 267 262 260 249 202 176 172 179 189 195 190 176 159 138 127 127 137 141 132 131 153 197 245 270 258 261 283 283 268 275 276 282 296 304 292 279 271 266